Weather History for Staunton, VA

Change the Weather History Date:

Saturday, May 11, 2013

  Actual Average Record
Temperature  
Mean Temperature 70 °F -  
Max Temperature 79 °F 73 °F 87 °F (2001)
Min Temperature 60 °F 49 °F 33 °F (1997)
Cooling Degree Days 4    
Growing Degree Days 20 (Base 50)    
Moisture  
Dew Point 57 °F    
Average Humidity 69    
Maximum Humidity 94    
Minimum Humidity 41    
Precipitation  
Precipitation 0.23 in - - ()
Sea Level Pressure  
Sea Level Pressure 29.85 in    
Wind  
Wind Speed 5 mph (SW)    
Max Wind Speed 15 mph    
Max Gust Speed 23 mph    
Visibility 10 miles    
Events      
Averages and records for this station are not official NWS values.
T = Trace of Precipitation, MM = Missing Value Source: NWS Daily Summary

Daily Weather History Graph

Daily Weather History Graph

Search for Another Location

Airport:

Trip Planner

Search our weather history database for the weather conditions in past years. The results will help you decide how hot, cold, wet, or windy it might be!

Date:

Astronomy

May. 11, 2013 Rise Set
Actual Time 6:08 AM EDT 8:16 PM EDT
Civil Twilight 5:38 AM EDT 8:45 PM EDT
Nautical Twilight 5:02 AM EDT 9:21 PM EDT
Astronomical Twilight 4:23 AM EDT 10:01 PM EDT
Moon 7:14 AM EDT (5/11) 9:54 PM EDT (5/11)
Length of Visible Light 15h 07m
Length of Day
14h 08m
Waxing Crescent, 3% of the Moon is Illuminated
May 11
Waxing Crescent
May 18
First Quarter
May 25
Full
May 31
Last Quarter
Jun 8
New

Hourly Weather History & Observations

Time (EDT) Temp. Dew Point Humidity Pressure Visibility Wind Dir Wind Speed Gust Speed Precip Events Conditions
12:15 AM 62.1 °F 59.5 °F 91% 29.94 in 10.0 mi South 4.6 mph - N/A   Clear
12:35 AM 62.1 °F 59.4 °F 91% 29.93 in 10.0 mi Calm Calm - N/A   Scattered Clouds
12:55 AM 61.9 °F 59.4 °F 91% 29.93 in 10.0 mi South 3.5 mph - N/A   Mostly Cloudy
1:15 AM 61.7 °F 59.4 °F 92% 29.93 in 10.0 mi South 3.5 mph - N/A   Overcast
1:35 AM 62.1 °F 59.4 °F 91% 29.93 in 10.0 mi South 4.6 mph - N/A   Overcast
1:55 AM 61.9 °F 59.4 °F 91% 29.92 in 10.0 mi South 3.5 mph - N/A   Overcast
2:15 AM 61.7 °F 59.4 °F 92% 29.91 in 10.0 mi South 3.5 mph - N/A   Overcast
2:35 AM 61.7 °F 59.2 °F 91% 29.91 in 10.0 mi Calm Calm - N/A   Overcast
2:55 AM 61.7 °F 59.0 °F 91% 29.91 in 10.0 mi Calm Calm - N/A   Overcast
3:15 AM 61.7 °F 59.4 °F 92% 29.90 in 10.0 mi Calm Calm - N/A   Mostly Cloudy
3:55 AM 62.1 °F 59.4 °F 91% 29.90 in 10.0 mi South 4.6 mph - N/A   Scattered Clouds
4:15 AM 62.2 °F 59.4 °F 90% 29.89 in 10.0 mi Calm Calm - N/A   Scattered Clouds
4:35 AM 61.9 °F 59.4 °F 91% 29.88 in 10.0 mi South 3.5 mph - N/A   Mostly Cloudy
4:55 AM 62.1 °F 59.4 °F 91% 29.88 in 10.0 mi Calm Calm - N/A   Scattered Clouds
5:15 AM 62.2 °F 59.4 °F 90% 29.88 in 10.0 mi Calm Calm - N/A   Clear
5:35 AM 62.1 °F 59.4 °F 91% 29.88 in 10.0 mi Calm Calm - N/A   Clear
5:55 AM 61.3 °F 59.0 °F 92% 29.87 in 7.0 mi SSW 3.5 mph - N/A   Mostly Cloudy
6:15 AM 60.6 °F 58.8 °F 94% 29.88 in 7.0 mi Calm Calm - N/A   Scattered Clouds
6:35 AM 61.5 °F 59.4 °F 93% 29.88 in 7.0 mi South 4.6 mph - N/A   Mostly Cloudy
6:55 AM 62.8 °F 59.5 °F 89% 29.88 in 10.0 mi South 4.6 mph - N/A   Mostly Cloudy
7:15 AM 63.3 °F 60.1 °F 89% 29.88 in 10.0 mi South 4.6 mph - N/A   Overcast
7:35 AM 64.4 °F 60.1 °F 86% 29.88 in 10.0 mi South 4.6 mph - N/A   Overcast
7:55 AM 64.9 °F 60.1 °F 84% 29.88 in 10.0 mi South 5.8 mph - N/A   Mostly Cloudy
8:15 AM 66.4 °F 61.0 °F 83% 29.87 in 10.0 mi South 6.9 mph - N/A   Scattered Clouds
8:35 AM 67.1 °F 61.0 °F 81% 29.87 in 10.0 mi South 5.8 mph - N/A   Clear
8:55 AM 67.6 °F 61.0 °F 79% 29.87 in 10.0 mi South 5.8 mph - N/A   Clear
9:15 AM 68.5 °F 61.0 °F 77% 29.87 in 10.0 mi SSW 6.9 mph - N/A   Mostly Cloudy
9:35 AM 69.8 °F 59.0 °F 68% 29.87 in 10.0 mi SW 12.7 mph - N/A   Overcast
9:55 AM 68.9 °F 58.5 °F 69% 29.87 in 10.0 mi SW 10.4 mph 17.3 mph N/A   Overcast
10:15 AM 68.9 °F 57.4 °F 67% 29.86 in 10.0 mi WSW 9.2 mph 17.3 mph N/A   Overcast
10:35 AM 70.2 °F 59.0 °F 68% 29.86 in 10.0 mi SSW 10.4 mph - N/A   Overcast
10:55 AM 69.8 °F 57.4 °F 65% 29.85 in 10.0 mi SSW 13.8 mph - N/A   Overcast
11:15 AM 70.3 °F 57.9 °F 65% 29.86 in 10.0 mi WSW 10.4 mph 20.7 mph N/A   Mostly Cloudy
11:35 AM 71.4 °F 58.1 °F 63% 29.86 in 10.0 mi WSW 15.0 mph 18.4 mph N/A   Scattered Clouds
11:55 AM 73.0 °F 57.7 °F 59% 29.85 in 10.0 mi SW 12.7 mph 23.0 mph N/A   Clear
12:15 PM 72.7 °F 57.4 °F 59% 29.86 in 10.0 mi WSW 12.7 mph - N/A   Scattered Clouds
12:35 PM 73.8 °F 57.7 °F 57% 29.84 in 10.0 mi SSW 13.8 mph 17.3 mph N/A   Scattered Clouds
12:55 PM 73.9 °F 57.9 °F 57% 29.84 in 10.0 mi SW 12.7 mph 16.1 mph N/A   Clear
1:15 PM 74.8 °F 57.4 °F 54% 29.83 in 10.0 mi SW 10.4 mph 18.4 mph N/A   Clear
1:35 PM 75.4 °F 57.6 °F 54% 29.83 in 10.0 mi SW 12.7 mph - N/A   Clear
1:55 PM 77.0 °F 57.7 °F 51% 29.83 in 10.0 mi SW 13.8 mph 18.4 mph N/A   Scattered Clouds
2:15 PM 75.4 °F 57.0 °F 53% 29.83 in 10.0 mi SW 12.7 mph - N/A   Mostly Cloudy
2:35 PM 74.8 °F 56.7 °F 53% 29.83 in 10.0 mi SW 11.5 mph - N/A   Overcast
2:55 PM 75.4 °F 55.2 °F 49% 29.81 in 10.0 mi SW 13.8 mph 21.9 mph N/A   Scattered Clouds
3:15 PM 77.0 °F 57.2 °F 50% 29.81 in 10.0 mi SW 12.7 mph 18.4 mph N/A   Scattered Clouds
3:35 PM 77.7 °F 56.3 °F 48% 29.79 in 10.0 mi SSW 13.8 mph 17.3 mph N/A   Clear
3:55 PM 77.9 °F 54.5 °F 44% 29.79 in 10.0 mi SW 9.2 mph - N/A   Clear
4:15 PM 78.3 °F 53.2 °F 42% 29.78 in 10.0 mi WSW 11.5 mph 18.4 mph N/A   Scattered Clouds
4:35 PM 79.0 °F 53.4 °F 41% 29.77 in 10.0 mi SW 12.7 mph 17.3 mph N/A   Scattered Clouds
4:55 PM 79.0 °F 53.4 °F 41% 29.77 in 10.0 mi SW 13.8 mph 20.7 mph N/A   Scattered Clouds
5:15 PM 78.3 °F 55.0 °F 45% 29.77 in 10.0 mi South 12.7 mph 17.3 mph N/A   Mostly Cloudy
5:35 PM 75.9 °F 54.3 °F 47% 29.78 in 10.0 mi West 8.1 mph 17.3 mph N/A   Mostly Cloudy
5:55 PM 73.6 °F 53.8 °F 50% 29.79 in 10.0 mi NW 6.9 mph 17.3 mph N/A   Overcast
6:15 PM 72.9 °F 54.9 °F 53% 29.79 in 10.0 mi WNW 9.2 mph - N/A   Overcast
6:35 PM 72.7 °F 55.8 °F 55% 29.79 in 10.0 mi NNW 6.9 mph - N/A   Mostly Cloudy
6:55 PM 71.6 °F 56.3 °F 58% 29.79 in 10.0 mi Calm Calm - N/A   Overcast
7:15 PM 71.2 °F 56.5 °F 60% 29.80 in 10.0 mi NW 4.6 mph - N/A   Overcast
7:35 PM 70.5 °F 56.7 °F 61% 29.80 in 10.0 mi West 4.6 mph - N/A   Overcast
7:55 PM 70.3 °F 55.2 °F 59% 29.80 in 10.0 mi West 4.6 mph - N/A   Scattered Clouds
8:15 PM 69.4 °F 55.2 °F 60% 29.81 in 10.0 mi Calm Calm - N/A   Scattered Clouds
8:35 PM 68.7 °F 54.5 °F 60% 29.81 in 10.0 mi West 3.5 mph - N/A   Scattered Clouds
8:55 PM 65.7 °F 55.6 °F 70% 29.81 in 10.0 mi WSW 3.5 mph - N/A   Mostly Cloudy
9:15 PM 67.1 °F 54.9 °F 65% 29.81 in 10.0 mi West 5.8 mph - N/A   Overcast
9:35 PM 67.5 °F 53.8 °F 61% 29.81 in 10.0 mi West 6.9 mph - N/A   Overcast
9:55 PM 66.9 °F 53.6 °F 62% 29.81 in 10.0 mi West 4.6 mph - N/A   Scattered Clouds
10:15 PM 66.7 °F 52.9 °F 61% 29.81 in 10.0 mi WSW 5.8 mph - N/A   Scattered Clouds
10:35 PM 66.0 °F 52.3 °F 61% 29.82 in 10.0 mi WSW 5.8 mph - N/A   Scattered Clouds
10:55 PM 64.6 °F 52.5 °F 65% 29.83 in 10.0 mi WSW 6.9 mph - N/A   Clear
11:15 PM 64.2 °F 52.0 °F 64% 29.82 in 10.0 mi WSW 5.8 mph - N/A   Clear
11:35 PM 64.6 °F 50.9 °F 61% 29.83 in 10.0 mi West 8.1 mph - N/A   Clear
11:55 PM 64.6 °F 50.7 °F 61% 29.84 in 10.0 mi Calm Calm - N/A   Scattered Clouds